Miscellaneous Local Product
Issued by NWS North Platte, NE

Home | Current Version | Previous Version | Graphics & Text | Print | Product List | Glossary On
Versions: 1 2 3 4 5 6 7 8 9 10 11 12 13 14 15 16 17 18 19 20 21 22 23 24 25 26 27 28 29 30 31 32 33 34 35 36 37 38 39 40 41 42 43 44 45 46 47 48 49 50
484
AXUS43 KLBF 281810
MISLBF


WESTERN AND NORTH CENTRAL NEBRASKA HOURLY WEATHER ROUNDUP
NATIONAL WEATHER SERVICE NORTH PLATTE NE
100 PM CDT SAT MAY 28 2016

NOTE: "FAIR" INDICATES FEW OR NO CLOUDS BELOW 12,000 FEET WITH NO
SIGNIFICANT WEATHER AND/OR OBSTRUCTIONS TO VISIBILITY.

NOTE: STATIONS NOT REPORTING VARIABLES SUCH AS SKY/WEATHER OR
PRESSURE ARE PROVIDED BY RAWS AND APRS NETWORKS AND ARE NOT UNDER
NATIONAL WEATHER SERVICE QUALITY CONTROL.

...OBSERVATIONS IN AND NEAR THE EASTERN PANHANDLE OF NEBRASKA...

CITY           SKY/WX    TMP DP  RH WIND       PRES   REMARKS
PINE RIDGE     SUNNY     71  43  36 VRB7      29.93R
CHADRON        MOSUNNY   70  46  42 CALM      29.93S
ALLIANCE       SUNNY     68  45  43 W9        29.95S
SIDNEY         SUNNY     67  45  45 CALM      30.00S
CRESCENT LAKE    N/A     69  44  39 W8          N/A
BIG SPRINGS      N/A     65  51  60 NW5         N/A
$$

...OBSERVATIONS IN NORTHERN NEBRASKA AND FAR SOUTHERN SOUTH DAKOTA...

CITY           SKY/WX    TMP DP  RH WIND       PRES   REMARKS
WINNER         FAIR      66  55  67 NW13      29.86S
VALENTINE      MOSUNNY   69  49  48 N13       29.90R
THEDFORD       PTSUNNY   69  51  53 NW9       29.92S
AINSWORTH      CLOUDY    66  51  59 N12G18    29.90S
O`NEILL        CLOUDY    59  57  92 CALM      29.86R
ORD            MOSUNNY   68  57  68 NW18      29.86R
BROKEN BOW     PTSUNNY   67  53  61 NW13      29.90R
BUTTE            N/A     63  58  83 NW14        N/A
CHAMBERS         N/A     64  58  80 N5          N/A
EWING            N/A     62  59  90 W9          N/A
$$

...OBSERVATIONS IN SOUTHWEST NEBRASKA AND FAR NORTHEAST COLORADO...

CITY           SKY/WX    TMP DP  RH WIND       PRES   REMARKS
WRAY           FAIR      70  46  43 W6        30.00S
HOLYOKE        FAIR      73  50  43 W3        29.99S
IMPERIAL       MOSUNNY   68  50  52 W6        29.97S
OGALLALA       SUNNY     69  48  47 W3        29.96R
NORTH PLATTE   PTSUNNY   70  51  51 NW7       29.93S
MCCOOK         MOSUNNY   69  50  50 W12       29.95R
LEXINGTON      MOSUNNY   69  55  60 NW12G17   29.91S
PAXTON           N/A     66  56  70 W7          N/A
STAPLETON        N/A     71  51  48 CALM        N/A
GOTHENBURG       N/A     68  51  54 W5          N/A
CALLAWAY         N/A     67  55  66 NW9         N/A
$$

...OBSERVATIONS IN CENTRAL LINCOLN COUNTY AREA...

CITY           SKY/WX    TMP DP  RH WIND       PRES   REMARKS
N.P. AIRPORT   PTSUNNY   70  51  51 NW7       29.93S
N.P. DOWNTOWN    N/A     71  52  51 CALM        N/A
N.P. SOUTHEAST   N/A     71  51  48 SW6         N/A
N.P. HILLCREST   N/A     68  53  58 W9          N/A
$$

...SOME OBSERVATIONS FROM AROUND THE REGION...

CITY           SKY/WX    TMP DP  RH WIND       PRES   REMARKS
DENVER         MOSUNNY   66  41  40 E12       30.04S
LARAMIE        CLOUDY    56  32  40 NW7       30.09R
CHEYENNE       CLOUDY    63  34  33 W8G16     30.04S
SCOTTSBLUFF    SUNNY     70  43  37 VRB3      29.96F
RAPID CITY     MOSUNNY   70  47  43 N6        29.91S
BISMARCK       PTSUNNY   68  54  60 NE3       29.87F
PIERRE         PTSUNNY   70  54  56 VRB5      29.84S
SIOUX FALLS    CLOUDY    68  61  78 N14       29.76F
OMAHA          PTSUNNY   71  57  61 W16       29.78S
GRAND ISLAND   PTSUNNY   67  56  67 NW14      29.87R
KANSAS CITY    PTSUNNY   72  62  71 W10       29.87R
WICHITA        MOSUNNY   76  58  53 W12       29.93R
OKLAHOMA CITY  MOSUNNY   78  60  53 W6        29.96R
DALLAS         PTSUNNY   78  68  71 SW9       29.96S
AMARILLO       SUNNY     74  44  34 SW3       30.06S
DODGE CITY     SUNNY     75  53  46 NW8       29.99R
HAYS           MOSUNNY   70  52  52 NW6       29.95S
GOODLAND       SUNNY     69  48  47 VRB3      30.00S
$$




USA.gov is the U.S. government's official web portal to all federal, state and local government web resources and services.